Wind_Speed
6 7 7 8 9 10 11 12 12 13 14 15 16 17 18 18 19 18 19 20 21 22 22 21 21 22 22 21 22 22 22 22 22 23 23 24 24 25 25 25 25 26 26 27
6 7 8 9 10 11 11 12 13 14 15 16 17 18 18 19 19 19 20 21 21 21 21 21 20 21 21 19 19 20 20 20 20 21 21 21 21 21 22 23 24 24 25 26
6 7 8 9 10 11 12 12 13 14 16 16 17 18 18 19 19 19 19 20 20 21 21 19 19 19 19 19 18 17 17 18 18 19 19 19 19 20 21 22 22 23 23 24
5 7 8 10 10 11 12 13 14 15 16 17 17 17 17 18 18 18 18 18 18 18 18 17 18 19 18 17 17 16 16 16 15 15 16 17 18 18 18 18 19 20 21 22
5 7 8 9 10 11 12 13 14 15 16 17 17 17 17 17 17 17 17 17 16 16 16 16 16 16 16 16 15 14 14 14 14 15 15 15 15 15 16 17 18 18 19 19
5 6 8 9 10 11 13 13 14 15 16 16 16 17 17 16 16 15 15 14 13 13 13 13 14 14 14 13 12 12 13 13 13 13 14 14 14 14 15 16 16 17 17 17
5 7 8 9 11 12 13 14 15 15 16 16 16 16 16 15 14 13 12 12 11 11 10 10 11 11 12 12 11 12 12 12 13 13 13 13 13 14 14 15 15 15 16 16
5 6 8 9 10 12 13 14 15 15 16 16 16 15 15 14 12 12 11 10 10 9 9 9 10 9 9 9 10 10 10 11 11 11 12 12 12 12 13 13 14 14 14 15
5 6 7 9 11 12 14 14 15 15 15 16 16 15 14 12 11 10 9 9 8 8 8 8 8 8 8 7 8 8 8 9 9 10 10 10 11 11 12 12 12 12 13 13
5 6 7 9 11 12 14 14 15 15 16 16 15 15 13 11 10 8 7 7 7 7 7 7 8 8 7 7 7 7 6 7 7 8 8 9 10 10 10 10 10 10 11 11
5 6 7 9 10 12 14 14 15 15 15 15 15 14 13 11 9 8 7 6 6 5 5 6 6 6 6 6 5 5 6 6 7 7 7 8 8 8 8 8 8 8 9 9
4 5 7 8 10 12 13 14 15 15 15 15 14 14 12 11 9 7 6 6 5 4 4 4 4 4 4 3 3 4 5 5 6 6 6 6 6 6 6 6 7 7 7 7
4 5 6 8 10 11 13 14 14 14 14 14 14 14 13 11 10 8 7 6 5 4 4 3 3 2 2 2 2 2 3 3 4 4 4 4 5 5 5 5 6 6 5 5
3 4 5 8 9 11 12 13 14 14 14 14 14 14 13 12 11 9 8 7 6 5 5 4 3 3 2 2 2 2 2 3 4 4 4 4 4 5 5 5 5 4 5 5
2 3 5 7 9 10 11 13 14 14 14 14 14 14 14 13 12 11 9 8 7 6 5 5 4 4 3 3 3 3 3 4 4 4 4 4 4 5 5 4 4 4 4 5
2 2 4 6 8 9 11 12 13 14 14 15 15 15 14 14 13 12 11 10 9 8 7 7 7 6 6 5 5 5 5 5 5 6 6 6 6 6 5 5 5 6 6 6
3 2 3 5 7 8 10 11 13 14 14 14 15 15 15 15 14 14 13 12 11 10 10 9 9 8 8 8 8 8 8 8 7 8 8 8 8 8 8 7 7 7 7 7
3 2 2 4 5 7 9 11 12 13 14 14 15 16 16 16 16 15 15 15 14 13 12 11 11 10 10 10 9 9 9 9 10 10 10 10 10 10 10 10 9 9 9 9
4 2 1 2 4 6 8 10 11 13 14 14 15 16 17 17 17 17 16 16 15 14 14 13 13 13 12 12 11 11 11 11 11 11 11 11 11 11 11 11 11 11 10 10
5 3 1 2 3 5 7 9 10 12 13 14 15 16 17 17 18 18 18 17 17 16 16 15 15 14 14 14 13 13 13 13 12 12 12 12 12 11 11 11 11 11 11 11
6 4 2 1 2 4 6 7 9 11 12 13 14 15 16 17 18 18 19 19 18 18 17 17 16 16 15 15 14 14 14 13 13 13 12 12 12 12 12 12 12 12 12 12
7 5 4 2 2 3 4 6 8 9 11 12 13 14 15 16 17 18 18 18 18 18 18 17 17 17 16 15 15 15 14 14 13 13 13 12 12 12 12 12 12 12 12 11
9 6 5 3 2 2 3 4 6 8 9 11 12 13 14 15 16 16 16 17 17 18 17 17 17 17 16 15 15 15 14 14 13 13 12 12 12 12 11 11 11 11 11 11
10 8 6 4 3 2 2 3 4 6 7 9 10 11 12 13 14 15 15 15 16 16 16 16 16 16 16 15 15 15 14 14 13 13 12 12 11 11 11 11 11 11 11 10
12 9 7 6 4 3 2 2 3 4 5 6 8 9 10 11 12 13 14 14 14 15 15 15 15 15 15 15 15 14 14 13 13 12 12 11 11 11 11 10 10 10 10 10
13 11 9 8 6 4 3 2 1 2 3 4 5 7 8 9 10 11 11 12 13 13 13 13 13 14 14 14 14 14 13 13 13 12 12 11 11 11 10 10 10 10 9 9
14 12 11 9 7 6 4 3 2 1 1 2 3 4 5 6 7 8 9 10 10 11 12 12 12 12 12 12 12 12 12 12 12 12 11 11 11 11 11 10 10 9 9 9
Wind_Direction
277 290 301 306 305 304 302 297 295 295 294 297 297 295 294 291 289 286 281 279 278 277 276 273 270 269 269 267 266 262 261 259 258 259 257 257 258 258 260 261 263 266 269 270
283 295 304 307 309 310 308 304 299 300 300 300 300 300 299 296 290 287 283 280 278 277 276 276 273 270 269 267 266 264 260 258 258 259 258 258 258 258 261 264 266 269 269 270
287 302 311 314 315 314 312 309 305 304 304 304 305 303 301 298 292 287 283 281 278 275 276 274 270 268 272 271 269 265 260 258 257 258 258 258 260 261 264 266 268 269 270 273
286 303 310 314 317 317 313 310 309 308 308 309 311 308 305 302 298 290 285 284 281 277 275 273 271 271 272 271 270 265 261 259 258 259 262 263 263 265 266 267 270 272 274 275
286 305 313 314 316 317 317 315 314 314 313 313 313 310 307 303 299 296 290 285 284 280 277 274 275 275 270 269 268 264 262 262 263 263 264 266 268 271 270 272 273 274 275 276
289 303 310 316 319 322 323 322 322 320 319 317 315 312 311 308 302 299 295 290 286 285 281 277 273 270 265 265 266 266 266 265 266 268 270 272 273 274 275 276 276 278 281 280
287 302 310 319 322 325 329 328 328 326 325 322 320 317 314 309 306 303 300 294 290 285 283 280 277 272 265 262 267 270 270 270 270 273 275 276 277 277 279 278 278 281 283 282
287 304 312 322 327 331 331 330 329 329 330 330 329 326 320 315 309 305 301 297 291 288 284 280 278 275 273 270 271 272 271 274 277 279 279 280 282 284 284 283 283 285 285 285
285 302 316 324 331 335 336 335 334 335 336 336 336 334 330 324 318 311 306 300 294 287 284 281 282 283 280 279 279 276 274 277 281 282 282 285 288 290 292 290 289 289 288 287
288 307 319 327 333 340 343 342 341 341 342 342 342 341 338 334 329 323 317 311 303 294 287 287 286 288 290 285 283 276 277 281 281 283 283 287 294 296 295 294 292 291 291 291
290 311 323 331 338 343 346 346 346 347 348 348 348 348 346 344 341 336 328 322 316 307 298 294 289 287 289 290 288 283 283 287 290 293 296 299 301 303 303 301 300 298 297 297
295 315 326 336 342 347 350 351 351 351 353 355 356 357 357 357 355 351 348 344 342 335 325 315 307 301 297 300 294 296 295 295 298 303 304 304 307 311 312 312 311 310 308 306
297 320 333 343 348 352 356 357 358 359 1 2 5 6 7 9 10 10 9 9 7 3 2 0 357 355 356 345 337 337 327 320 322 325 326 326 327 327 325 323 321 321 322 322
297 324 337 347 352 356 360 3 4 6 8 10 12 14 15 18 21 24 27 29 29 29 31 33 36 39 33 24 15 4 355 351 350 353 354 353 349 345 342 340 341 339 337 333
286 322 342 352 356 1 5 8 10 12 15 18 20 21 23 26 29 32 34 35 36 38 40 42 47 51 48 46 36 25 23 24 24 24 22 18 14 14 13 11 10 7 1 354
260 314 346 356 1 6 11 14 17 19 21 24 26 27 30 34 37 40 41 42 45 48 51 55 60 63 62 60 56 55 55 53 52 48 46 43 41 40 38 36 34 29 25 21
235 295 347 1 8 13 17 20 23 26 28 30 32 34 37 40 43 46 47 49 51 54 59 62 65 67 68 68 67 65 65 65 63 60 58 57 55 56 56 53 50 45 41 39
221 258 343 6 15 21 23 25 29 32 34 36 39 42 44 46 47 48 50 52 55 59 63 66 68 69 70 70 68 68 70 71 69 66 65 64 63 63 61 57 53 51 50 48
210 224 317 11 21 26 28 31 34 37 39 42 45 47 49 50 50 51 52 56 59 62 65 67 69 70 70 71 73 73 73 71 70 68 68 67 66 64 61 58 56 54 54 54
196 193 159 40 33 35 36 38 41 44 45 47 49 51 52 52 52 53 55 59 61 64 66 68 70 71 71 72 73 74 73 71 70 70 69 68 67 65 62 60 57 55 55 55
188 181 161 99 57 51 47 46 47 49 50 51 52 53 54 55 55 57 58 60 62 64 66 67 69 70 71 71 72 72 71 70 69 69 68 67 66 64 62 59 56 56 55 55
186 180 171 147 94 71 58 52 52 53 54 54 55 56 57 58 58 58 59 60 62 63 65 66 66 67 68 69 70 70 69 69 68 66 66 65 64 62 60 57 56 55 54 54
190 186 180 169 143 107 76 61 57 56 57 57 58 58 59 59 59 59 60 60 61 62 63 63 64 64 65 65 66 66 66 66 65 63 62 61 60 58 57 55 53 52 51 51
196 196 192 185 173 149 107 78 66 62 60 59 58 58 59 59 59 59 59 59 60 61 61 62 62 63 63 63 63 62 62 62 61 60 59 58 58 56 54 52 49 47 46 45
198 198 197 194 189 178 153 112 83 70 64 60 57 57 57 58 58 58 58 57 58 58 59 60 60 61 61 61 60 59 58 57 57 56 55 54 52 50 48 47 45 43 41 41
198 199 200 198 196 193 188 171 126 85 70 61 56 54 54 54 54 54 54 54 54 54 54 55 56 56 56 56 56 55 54 53 53 53 52 50 48 46 45 43 41 40 38 37
200 201 203 202 201 201 201 199 191 154 89 62 52 47 47 47 46 45 45 45 46 47 47 47 48 49 49 49 49 48 47 46 45 44 44 43 42 41 41 39 36 33 31 29
Height
5774 5773 5772 5770 5769 5768 5766 5765 5763 5762 5759 5757 5754 5752 5749 5747 5745 5743 5742 5740 5738 5737 5735 5734 5732 5732 5731 5730 5729 5729 5729 5729 5728 5728 5729 5729 5729 5730 5730 5730 5731 5731 5730 5730
5772 5770 5769 5768 5767 5765 5763 5761 5759 5757 5755 5752 5749 5747 5744 5742 5739 5737 5736 5734 5732 5731 5729 5727 5726 5725 5725 5724 5723 5723 5723 5722 5722 5722 5722 5723 5723 5723 5723 5723 5723 5723 5723 5722
5770 5768 5767 5766 5764 5762 5760 5758 5756 5753 5752 5748 5745 5742 5739 5736 5734 5731 5730 5728 5726 5724 5723 5722 5720 5719 5719 5718 5718 5717 5717 5717 5717 5717 5717 5717 5717 5717 5717 5717 5717 5717 5716 5715
5768 5767 5766 5766 5761 5759 5757 5755 5752 5749 5747 5744 5740 5737 5734 5731 5728 5726 5724 5721 5719 5718 5717 5716 5715 5714 5713 5713 5713 5712 5712 5712 5712 5712 5712 5712 5712 5712 5711 5711 5711 5710 5710 5708
5766 5765 5764 5762 5759 5757 5754 5752 5749 5746 5743 5739 5736 5732 5729 5726 5723 5721 5718 5716 5714 5713 5712 5711 5710 5709 5709 5708 5708 5707 5707 5708 5708 5707 5707 5707 5707 5706 5706 5706 5705 5705 5704 5703
5764 5763 5762 5761 5757 5754 5753 5749 5746 5742 5739 5735 5732 5728 5725 5721 5718 5716 5714 5711 5710 5709 5707 5706 5706 5705 5705 5704 5704 5704 5703 5703 5703 5703 5703 5703 5702 5702 5702 5701 5701 5700 5699 5698
5762 5761 5759 5757 5754 5752 5751 5748 5742 5739 5735 5731 5728 5725 5721 5717 5714 5712 5710 5708 5706 5705 5704 5703 5702 5702 5701 5701 5700 5700 5700 5699 5699 5699 5699 5699 5698 5698 5697 5697 5696 5695 5694 5693
5760 5759 5759 5755 5752 5750 5748 5743 5739 5736 5732 5728 5724 5720 5717 5713 5710 5708 5706 5705 5703 5702 5701 5700 5699 5699 5698 5697 5697 5697 5696 5696 5696 5696 5695 5695 5695 5694 5694 5693 5692 5691 5690 5688
5759 5759 5756 5753 5750 5747 5744 5740 5737 5733 5729 5725 5721 5717 5713 5710 5708 5705 5704 5702 5701 5700 5699 5698 5697 5696 5696 5695 5695 5694 5694 5694 5693 5693 5693 5692 5692 5691 5690 5689 5688 5687 5686 5684
5756 5754 5753 5751 5748 5745 5742 5738 5734 5731 5727 5723 5719 5715 5711 5708 5705 5703 5701 5700 5698 5697 5696 5696 5695 5694 5694 5693 5693 5692 5692 5692 5691 5691 5691 5690 5689 5688 5687 5686 5685 5684 5683 5681
5754 5753 5751 5749 5746 5743 5740 5736 5732 5729 5725 5721 5717 5713 5709 5706 5704 5702 5700 5698 5697 5696 5695 5694 5693 5692 5692 5691 5691 5691 5690 5690 5690 5689 5689 5688 5687 5686 5685 5684 5682 5681 5680 5678
5753 5752 5750 5748 5745 5742 5738 5735 5731 5727 5723 5719 5716 5712 5708 5705 5703 5700 5698 5697 5695 5694 5693 5692 5691 5691 5690 5690 5690 5689 5689 5689 5688 5687 5686 5686 5685 5684 5682 5681 5680 5679 5678 5676
5751 5750 5748 5746 5744 5741 5737 5734 5730 5726 5723 5719 5715 5712 5708 5705 5702 5700 5698 5696 5695 5694 5693 5692 5691 5690 5690 5689 5689 5689 5688 5687 5687 5686 5685 5684 5683 5682 5681 5680 5679 5677 5676 5675
5750 5749 5748 5746 5743 5740 5737 5733 5730 5726 5723 5719 5715 5712 5708 5705 5702 5700 5698 5696 5695 5693 5692 5691 5691 5690 5689 5689 5689 5688 5688 5687 5686 5685 5684 5683 5682 5681 5680 5679 5678 5677 5675 5674
5749 5748 5747 5745 5743 5740 5737 5734 5730 5727 5723 5720 5716 5713 5709 5706 5703 5701 5699 5697 5695 5694 5693 5692 5691 5690 5690 5689 5689 5688 5687 5686 5686 5685 5684 5683 5682 5681 5680 5679 5677 5676 5675 5674
5748 5747 5746 5745 5743 5740 5737 5734 5731 5728 5724 5721 5717 5714 5711 5708 5705 5702 5700 5698 5696 5695 5694 5693 5692 5691 5691 5690 5689 5689 5688 5687 5686 5686 5685 5684 5683 5681 5680 5679 5678 5677 5675 5674
5747 5747 5746 5745 5743 5741 5738 5735 5732 5729 5726 5722 5719 5716 5713 5710 5707 5704 5702 5700 5698 5696 5695 5694 5694 5693 5692 5691 5691 5690 5689 5689 5688 5687 5686 5685 5684 5683 5681 5680 5679 5678 5676 5675
5746 5746 5746 5745 5743 5741 5739 5736 5734 5731 5728 5725 5722 5719 5716 5713 5710 5707 5705 5703 5700 5699 5697 5697 5696 5695 5694 5694 5693 5692 5691 5691 5690 5689 5688 5687 5686 5685 5683 5682 5681 5679 5678 5676
5745 5745 5745 5744 5743 5742 5740 5738 5735 5733 5730 5727 5724 5722 5719 5716 5713 5711 5708 5706 5704 5702 5701 5700 5699 5698 5697 5696 5695 5695 5694 5693 5692 5691 5690 5689 5688 5687 5686 5685 5683 5682 5680 5679
5745 5745 5745 5744 5744 5742 5741 5739 5737 5735 5733 5730 5728 5725 5722 5720 5717 5714 5712 5710 5708 5706 5705 5703 5702 5701 5700 5699 5698 5698 5697 5696 5695 5694 5693 5692 5691 5690 5689 5687 5686 5684 5683 5681
5744 5744 5744 5744 5744 5743 5742 5741 5739 5737 5735 5733 5731 5728 5726 5723 5721 5719 5716 5714 5712 5711 5709 5707 5706 5705 5704 5703 5702 5701 5700 5699 5698 5697 5696 5695 5694 5693 5691 5690 5688 5687 5685 5684
5743 5744 5744 5744 5744 5744 5743 5742 5741 5739 5738 5736 5734 5732 5729 5727 5725 5723 5721 5719 5717 5715 5713 5712 5710 5709 5708 5707 5706 5705 5704 5703 5702 5700 5699 5698 5697 5696 5694 5693 5691 5690 5688 5687
5742 5743 5744 5744 5744 5744 5744 5743 5742 5741 5739 5738 5736 5735 5733 5731 5729 5727 5725 5724 5721 5720 5718 5716 5715 5713 5712 5711 5709 5708 5707 5706 5705 5704 5702 5701 5700 5699 5697 5696 5694 5693 5691 5690
5740 5742 5743 5743 5744 5744 5744 5744 5743 5742 5741 5740 5739 5737 5736 5734 5732 5730 5729 5727 5725 5724 5722 5721 5719 5717 5716 5715 5713 5712 5710 5709 5708 5707 5705 5704 5703 5701 5700 5699 5697 5696 5694 5692
5739 5740 5742 5743 5743 5744 5744 5744 5743 5743 5742 5741 5740 5739 5738 5736 5735 5734 5732 5730 5729 5727 5726 5724 5723 5721 5719 5718 5716 5715 5714 5712 5711 5710 5708 5707 5705 5704 5702 5701 5700 5698 5696 5695
5737 5739 5740 5741 5742 5743 5743 5743 5743 5743 5743 5742 5742 5741 5740 5738 5737 5736 5735 5733 5732 5730 5729 5727 5726 5724 5722 5721 5720 5718 5717 5715 5714 5712 5711 5709 5708 5706 5705 5703 5702 5700 5698 5697
5734 5736 5738 5740 5741 5742 5742 5743 5743 5743 5743 5743 5742 5742 5741 5740 5739 5738 5737 5735 5734 5733 5731 5730 5728 5727 5725 5724 5722 5721 5719 5718 5716 5714 5713 5711 5710 5708 5706 5705 5703 5702 5700 5698